GW0967 Weather Reports


time (UTC)temp
C
wind
direction
speed
KPH
gust
KPH
rain 1hr
cm
rain 24hr
cm
rain mn
cm
humidity
%
barometer
mb
20260504173600 13 9 8.0 16.1 0.00 0.00 0.00 43 1011.2
20260504173058 13 353 17.7 32.2 0.00 0.00 0.00 43 1011.0
20260504172553 12 357 6.4 9.7 0.00 0.00 0.00 45 1011.7
20260504172050 12 2 12.9 29.0 0.00 0.00 0.00 46 1011.2
20260504171547 12 311 11.3 25.7 0.00 0.00 0.00 46 1011.1
20260504171044 12 285 24.1 27.4 0.00 0.00 0.00 46 1011.1
20260504170539 12 346 22.5 29.0 0.00 0.00 0.00 46 1011.4
20260504150924 11 339 11.3 20.9 0.00 0.00 0.00 48 1010.5
20260504150420 11 327 9.7 20.9 0.00 0.00 0.00 48 1010.7
20260504140847 10 20 6.4 24.1 0.00 0.00 0.00 52 1010.1
20260504140343 10 2 12.9 17.7 0.00 0.00 0.00 53 1010.1
20260504130812 10 351 4.8 9.7 0.00 0.00 0.00 53 1010.0
20260504130308 10 3 4.8 8.0 0.00 0.00 0.00 54 1009.9
20260504120231 8 346 4.8 14.5 0.00 0.00 0.00 58 1008.6
20260504110659 12 339 6.4 22.5 0.00 0.00 0.00 45 1006.6
20260504110155 12 346 11.3 32.2 0.00 0.00 0.00 45 1006.4
20260504100119 12 348 3.2 11.3 0.00 0.00 0.00 44 1005.5
20260504081512 13 320 4.8 8.0 0.00 0.00 0.00 43 1005.4
20260504081008 13 286 0.0 9.7 0.00 0.00 0.00 44 1005.2
20260504080504 13 111 4.8 9.7 0.00 0.00 0.00 44 1005.4
20260504050317 13 323 4.8 4.8 0.00 0.03 0.03 49 1007.0
20260504045814 13 35 4.8 6.4 0.00 0.03 0.03 49 1007.2
20260504045309 13 353 6.4 8.0 0.00 0.03 0.03 48 1006.7
20260504044806 14 37 0.0 4.8 0.00 0.03 0.03 48 1006.8
20260504044303 14 344 3.2 8.0 0.00 0.03 0.03 47 1006.8
20260504043800 14 321 4.8 8.0 0.00 0.03 0.03 48 1006.5
20260504043258 13 216 4.8 9.7 0.00 0.03 0.03 49 1006.7
20260504042755 13 311 0.0 8.0 0.00 0.03 0.03 50 1006.6
20260504042251 13 14 0.0 11.3 0.00 0.03 0.03 51 1006.7
20260504041748 13 323 0.0 14.5 0.00 0.03 0.03 52 1006.7
20260504041244 13 245 0.0 8.0 0.00 0.03 0.03 53 1007.0
20260504040740 13 261 3.2 9.7 0.00 0.03 0.03 54 1006.8
20260504040238 13 324 4.8 9.7 0.00 0.03 0.03 54 1006.7
20260504035733 13 306 8.0 9.7 0.00 0.03 0.03 55 1007.2
20260504035231 13 242 3.2 9.7 0.00 0.03 0.03 56 1006.8
20260504034728 13 250 4.8 6.4 0.00 0.03 0.03 57 1007.2
20260504034225 14 142 0.0 9.7 0.00 0.03 0.03 57 1007.1
20260504033723 14 193 3.2 11.3 0.00 0.03 0.03 57 1007.1
20260504033220 13 245 3.2 11.3 0.00 0.03 0.03 58 1007.0
20260504032717 13 244 12.9 14.5 0.00 0.03 0.03 60 1007.2
20260504032214 12 329 4.8 9.7 0.00 0.03 0.03 64 1007.1
20260504031711 12 125 0.0 4.8 0.00 0.03 0.03 66 1007.0
20260504031208 11 33 0.0 6.4 0.00 0.03 0.03 68 1006.8
20260504030704 11 210 0.0 4.8 0.00 0.03 0.03 68 1007.1
20260504030202 12 129 0.0 4.8 0.00 0.03 0.03 67 1007.1
20260504025658 12 54 0.0 4.8 0.00 0.03 0.03 65 1006.8
20260504025155 12 83 0.0 4.8 0.00 0.03 0.03 63 1007.2
20260504024652 13 79 6.4 6.4 0.00 0.03 0.03 62 1006.7
20260504024148 13 67 6.4 6.4 0.00 0.03 0.03 61 1007.2
20260504023645 13 150 4.8 9.7 0.00 0.03 0.03 61 1007.1
20260504023141 13 135 4.8 11.3 0.00 0.03 0.03 61 1006.8
20260504022637 13 167 0.0 8.0 0.00 0.03 0.03 60 1007.0
20260504022133 13 147 4.8 6.4 0.00 0.03 0.03 60 1007.4
20260504021632 13 138 4.8 4.8 0.00 0.03 0.03 60 1007.2
20260504021128 13 142 4.8 6.4 0.00 0.03 0.03 59 1007.1
20260504020625 13 189 9.7 9.7 0.00 0.03 0.03 59 1007.2
20260504020121 14 203 4.8 6.4 0.00 0.03 0.03 58 1007.3
20260504015618 14 200 3.2 8.0 0.00 0.03 0.03 58 1007.2
20260504015114 14 153 4.8 9.7 0.00 0.03 0.03 58 1007.5
20260504014610 15 158 3.2 6.4 0.00 0.03 0.03 57 1007.4
20260504014107 15 165 4.8 8.0 0.00 0.03 0.03 56 1007.6
20260504013605 15 163 4.8 8.0 0.00 0.03 0.03 55 1007.6
20260504013102 15 152 6.4 8.0 0.00 0.03 0.03 54 1007.6
20260504012559 15 146 4.8 11.3 0.00 0.03 0.03 53 1007.8
20260504012057 16 153 8.0 12.9 0.00 0.03 0.03 53 1007.8
20260504011553 16 168 6.4 8.0 0.00 0.03 0.03 52 1008.1
20260504011049 16 155 6.4 9.7 0.00 0.03 0.03 51 1007.8
20260504010545 16 151 6.4 9.7 0.00 0.03 0.03 50 1008.1
20260504010042 17 193 3.2 12.9 0.00 0.03 0.03 50 1008.5
20260504005538 17 154 8.0 12.9 0.00 0.03 0.03 49 1008.3
20260504005036 17 165 4.8 11.3 0.00 0.03 0.03 48 1008.4
20260504004533 17 176 4.8 12.9 0.00 0.03 0.03 48 1008.3
20260504004030 17 164 6.4 9.7 0.00 0.03 0.03 46 1008.5
20260504003526 17 227 8.0 17.7 0.00 0.03 0.03 46 1008.7
20260504003023 17 180 3.2 24.1 0.00 0.03 0.03 45 1008.6
20260504002520 18 187 4.8 19.3 0.00 0.03 0.03 45 1008.9
20260504002018 18 170 4.8 11.3 0.00 0.03 0.03 44 1008.8
20260504001515 18 150 9.7 20.9 0.00 0.03 0.03 42 1009.0
20260504001011 18 196 6.4 20.9 0.00 0.03 0.03 43 1009.0
20260504000509 18 187 4.8 14.5 0.00 0.03 0.03 41 1009.3
20260504000006 19 59 4.8 14.5 0.00 0.03 0.03 39 1009.3
20260503235504 19 165 4.8 17.7 0.00 0.03 0.03 39 1009.2
20260503235001 19 212 4.8 14.5 0.00 0.03 0.03 39 1009.4
20260503234458 20 247 14.5 17.7 0.00 0.03 0.03 38 1009.2
20260503233956 20 222 4.8 8.0 0.00 0.03 0.03 38 1009.4
20260503233452 20 169 4.8 17.7 0.00 0.03 0.03 40 1009.6
20260503232948 20 168 6.4 14.5 0.00 0.03 0.03 39 1009.6
20260503232445 20 276 3.2 6.4 0.00 0.03 0.03 40 1009.7
20260503231943 19 192 0.0 9.7 0.00 0.03 0.03 41 1009.6
20260503231440 20 198 8.0 16.1 0.00 0.03 0.03 39 1009.9
20260503230937 20 326 3.2 16.1 0.00 0.03 0.03 40 1009.9
20260503230433 18 235 6.4 17.7 0.00 0.03 0.03 43 1009.8
20260503225931 18 189 6.4 9.7 0.00 0.03 0.03 44 1009.9
20260503225428 18 201 8.0 8.0 0.00 0.03 0.03 48 1010.0
20260503224923 17 245 6.4 6.4 0.00 0.03 0.03 50 1010.1
20260503224421 17 250 3.2 9.7 0.00 0.03 0.03 48 1010.6
20260503223918 17 141 0.0 11.3 0.00 0.03 0.03 46 1010.7
20260503223416 17 317 0.0 14.5 0.00 0.03 0.03 47 1010.8
20260503222916 18 237 6.4 16.1 0.00 0.03 0.03 48 1011.1
20260503222415 18 325 3.2 20.9 0.00 0.03 0.03 48 1010.9
20260503221913 18 192 8.0 12.9 0.00 0.03 0.03 48 1011.4
20260503221411 18 200 4.8 6.4 0.00 0.03 0.03 51 1011.2
20260503220907 17 196 4.8 8.0 0.00 0.03 0.03 54 1011.5
20260503220404 17 255 3.2 8.0 0.00 0.03 0.03 57 1011.4
20260503215901 16 225 3.2 6.4 0.00 0.03 0.03 62 1011.4
20260503215358 15 290 3.2 6.4 0.00 0.03 0.03 64 1011.2
20260503214855 15 278 4.8 6.4 0.00 0.03 0.03 63 1011.6
20260503214353 14 349 3.2 11.3 0.00 0.03 0.03 64 1011.8
20260503213850 14 14 9.7 14.5 0.00 0.03 0.03 66 1011.8
20260503213348 15 359 4.8 24.1 0.00 0.03 0.03 64 1012.0
20260503212844 15 311 0.0 3.2 0.00 0.03 0.03 56 1011.7
20260503212342 15 66 0.0 3.2 0.00 0.03 0.03 58 1012.1
20260503211839 15 269 0.0 3.2 0.13 0.03 0.03 57 1012.0
20260503211336 15 310 3.2 6.4 0.13 0.03 0.03 55 1011.9
20260503210831 15 355 3.2 14.5 0.00 0.00 0.00 56 1012.2
20260503210329 16 4 8.0 8.0 0.00 0.00 0.00 49 1012.2
20260503205823 17 331 4.8 6.4 0.00 0.00 0.00 46 1012.3
20260503205320 17 171 0.0 4.8 0.00 0.00 0.00 45 1012.2
20260503204817 17 142 0.0 0.0 0.00 0.00 0.00 46 1011.7
20260503204315 17 114 0.0 6.4 0.00 0.00 0.00 45 1011.8
20260503203812 17 156 6.4 6.4 0.00 0.00 0.00 44 1011.8
20260503203309 17 100 3.2 6.4 0.00 0.00 0.00 43 1011.7
20260503202806 17 152 3.2 6.4 0.00 0.00 0.00 46 1011.8
20260503202304 17 164 4.8 4.8 0.00 0.00 0.00 47 1011.7
20260503201801 17 111 4.8 11.3 0.00 0.00 0.00 46 1012.0
20260503201258 17 106 6.4 6.4 0.00 0.00 0.00 46 1012.3
20260503200756 17 37 0.0 4.8 0.00 0.00 0.00 46 1012.3
20260503200251 17 147 0.0 3.2 0.00 0.00 0.00 47 1012.6
20260503195749 17 43 4.8 4.8 0.00 0.00 0.00 44 1012.5
20260503195246 17 359 3.2 6.4 0.00 0.00 0.00 43 1012.7
20260503194743 17 275 6.4 6.4 0.00 0.00 0.00 43 1012.7
20260503194238 17 352 6.4 8.0 0.00 0.00 0.00 44 1012.8
20260503193735 18 357 4.8 12.9 0.00 0.00 0.00 42 1012.8
20260503193231 18 290 3.2 6.4 0.00 0.00 0.00 40 1012.6
20260503192727 18 180 0.0 6.4 0.00 0.00 0.00 38 1012.6
20260503192222 18 147 4.8 8.0 0.00 0.00 0.00 38 1012.8
20260503191719 18 171 6.4 8.0 0.00 0.00 0.00 38 1012.8
20260503191216 18 69 3.2 4.8 0.00 0.00 0.00 37 1013.0
20260503190713 19 329 0.0 6.4 0.00 0.00 0.00 37 1013.0
20260503190210 20 108 11.3 17.7 0.00 0.00 0.00 36 1012.9
20260503185707 20 62 11.3 12.9 0.00 0.00 0.00 36 1013.0
20260503185202 20 223 0.0 4.8 0.00 0.00 0.00 40 1013.0
20260503184657 19 334 8.0 8.0 0.00 0.00 0.00 39 1013.2
20260503184154 18 96 16.1 17.7 0.00 0.00 0.00 39 1013.1
20260503183650 18 41 8.0 14.5 0.00 0.00 0.00 41 1013.1
20260503183148 18 1 12.9 14.5 0.00 0.00 0.00 42 1013.2
20260503182646 18 338 9.7 9.7 0.00 0.00 0.00 38 1013.7
20260503182144 19 11 19.3 25.7 0.00 0.00 0.00 36 1013.3
20260503181640 18 320 6.4 19.3 0.00 0.00 0.00 37 1013.7
20260503181137 19 104 8.0 9.7 0.00 0.00 0.00 35 1013.7
20260503180634 20 349 8.0 17.7 0.00 0.00 0.00 35 1013.4
20260503180132 20 146 4.8 14.5 0.00 0.00 0.00 34 1013.7
20260503175629 19 331 8.0 16.1 0.00 0.00 0.00 35 1013.8
20260503175126 20 5 8.0 14.5 0.00 0.00 0.00 35 1013.8
20260503174622 19 73 12.9 17.7 0.00 0.00 0.00 36 1013.8
20260503174120 19 349 4.8 19.3 0.00 0.00 0.00 38 1013.7